Miscellaneous Local Product
Issued by NWS North Platte, NE

Home | Current Version | Previous Version | Graphics & Text | Print | Product List | Glossary On
Versions: 1 2 3 4 5 6 7 8 9 10 11 12 13 14 15 16 17 18 19 20 21 22 23 24 25 26 27 28 29 30 31 32 33 34 35 36 37 38 39 40 41 42 43 44 45 46 47 48 49 50
762
AXUS43 KLBF 130610
MISLBF


WESTERN AND NORTH CENTRAL NEBRASKA HOURLY WEATHER ROUNDUP
NATIONAL WEATHER SERVICE NORTH PLATTE NE
1200 AM CST SAT FEB 13 2016

NOTE: "FAIR" INDICATES FEW OR NO CLOUDS BELOW 12,000 FEET WITH NO
SIGNIFICANT WEATHER AND/OR OBSTRUCTIONS TO VISIBILITY.

NOTE: STATIONS NOT REPORTING VARIABLES SUCH AS SKY/WEATHER OR
PRESSURE ARE PROVIDED BY THE NEBRASKA DEPARTMENT OF
ROADS...RAWS...AND APRS NETWORKS...AND ARE NOT UNDER
NATIONAL WEATHER SERVICE QUALITY CONTROL.

...OBSERVATIONS IN AND NEAR THE EASTERN PANHANDLE OF NEBRASKA...

CITY           SKY/WX    TMP DP  RH WIND       PRES   REMARKS
PINE RIDGE     CLOUDY    33  27  78 S18G24    30.25F WCI  22
CHADRON        CLOUDY    34  29  82 S13       30.24F WCI  25
ALLIANCE       CLOUDY    31  29  92 S15G23    30.25F WCI  20
SIDNEY         CLOUDY    29  29 100 S16       30.27F FOG     WCI  17
CRESCENT LAKE    N/A     30  30  99 S10         N/A  WCI  21
$$

...OBSERVATIONS IN NORTH CENTRAL NEBRASKA...

CITY           SKY/WX    TMP DP  RH WIND       PRES   REMARKS
VALENTINE      CLOUDY    23  16  74 SE13      30.41F WCI  11
THEDFORD       CLOUDY    26  21  83 SE14      30.39F WCI  14
AINSWORTH      CLOUDY    20  13  75 SE12      30.43F WCI   8
O`NEILL        CLOUDY    15   9  76 E9        30.52F WCI   3
ORD            CLOUDY    18  12  77 SE8       30.51F WCI   8
BROKEN BOW     CLOUDY    20  16  84 SE10      30.46S WCI   9
VALENTINE NWR    N/A     21  15  78 SE9         N/A  WCI  11
BUTTE            N/A     12   7  79 E9          N/A  WCI   0
HALSEY           N/A     23  18  80 SE8         N/A  WCI  14
CHAMBERS         N/A     15   6  67 E3          N/A
EWING            N/A     13   8  81 E3          N/A
$$

...OBSERVATIONS IN SOUTHWEST NEBRASKA AND FAR NORTHEAST COLORADO...

CITY           SKY/WX    TMP DP  RH WIND       PRES   REMARKS
WRAY           CLOUDY   N/A N/A N/A SE16      30.34S FOG
HOLYOKE        CLOUDY    34  32  93 S16       30.33S FOG     WCI  23
IMPERIAL       CLOUDY    29  28  96 SE15      30.36F WCI  18
OGALLALA       CLOUDY    30  28  93 SE12      30.35F FOG     WCI  21
NORTH PLATTE   CLOUDY    25  21  85 SE9       30.41F WCI  15
MCCOOK         FOG       26  25  96 SE12      30.44F VSB 1/4 WCI  16
LEXINGTON      CLOUDY    23  17  77 SE12      30.47F WCI  12
STAPLETON        N/A     23  20  89 CALM        N/A
$$

...OBSERVATIONS IN CENTRAL LINCOLN COUNTY AREA...

CITY           SKY/WX    TMP DP  RH WIND       PRES   REMARKS
N.P. AIRPORT   CLOUDY    25  21  85 SE9       30.41F WCI  15
N.P. DOWNTOWN    N/A     25  23  91 SE3         N/A
N.P. SOUTHEAST   N/A     24  22  90 SE7         N/A  WCI  16
N.P. HILLCREST   N/A     24  22  93 SE12        N/A  WCI  13
$$

...SOME OBSERVATIONS FROM AROUND THE REGION...

CITY           SKY/WX    TMP DP  RH WIND       PRES   REMARKS
DENVER         FOG       30  28  92 N5        30.21F VSB 1/4 WCI  25
LARAMIE        CLOUDY    41  21  44 SW18      30.20F
CHEYENNE       CLOUDY    30  30 100 SW18      30.18F FOG     WCI  18
SCOTTSBLUFF    CLOUDY    33  30  88 SE10      30.24F WCI  25
RAPID CITY     CLOUDY    25  22  88 SE16      30.22F WCI  12
BISMARCK       CLOUDY     5  -5  63 SE9       30.51F WCI  -9
PIERRE         CLOUDY    13   5  70 SE14      30.49F WCI  -2
WINNER         CLOUDY    17   9  70 SE18      30.48F WCI   1
SIOUX FALLS    CLOUDY    -2  -7  79 NW3       30.62R
OMAHA          CLOUDY    13   1  59 N9        30.66R WCI   1
GRAND ISLAND   CLOUDY    17  10  74 E9        30.55F WCI   6
KANSAS CITY    CLOUDY    19   7  59 N12       30.60R WCI   7
WICHITA        CLOUDY    33  18  53 NE15      30.52S WCI  23
OKLAHOMA CITY  PTCLDY    40  27  59 NE10      30.46R WCI  33
LIBERAL        CLOUDY    30  21  69 E12       30.39S WCI  21
HAYS           CLOUDY    27  14  59 E10       30.48S WCI  17
GOODLAND       CLOUDY    28  27  96 S20       30.36F WCI  15
$$




USA.gov is the U.S. government's official web portal to all federal, state and local government web resources and services.